Location: Napier
(39.4830°S, 176.9170°E)
Time: 09:08:09
(UTC+13:00)

Cosmos 1763 Rocket - Pass Details

Date: 24 January 2019
Orbit: 732 x 780 km, 74.0° (Epoch: 16 October)

Event Time Altitude Azimuth Distance (km) Brightness Sun altitude
Rises 22:26:28 0° 206° (SSW) 3,266 8.1 -18.1°
Reaches altitude 10° 22:28:58 10° 212° (SSW) 2,324 7.2 -18.4°
Maximum altitude 22:33:56 44° 282° (WNW) 1,050 4.4 -19.1°
Enters shadow 22:37:18 19° 345° (NNW) 1,740 5.0 -19.5°
